{"data":{"norad_id":64734,"intl_designator":"2025-144L","name":"STARLINK-34591","alt_names":[],"object_type":"PAYLOAD","status":"ACTIVE","operator":null,"country":"US","launch_date":"2025-07-02","launch_site_code":"AFETR","launch_vehicle":null,"mission":null,"orbit_class":"UNKNOWN","rcs_meters":null,"size_class":null,"mass_kg":null,"dimensions":null,"purposes":["comms"],"wikipedia_slug":null,"has_3d_model":false,"image_url":null,"decayed_at":null,"tle_current":{"epoch":"2026-05-24T20:14:25.156608Z","epoch_age_seconds":84660,"freshness":"FRESH","line1":"1 64734U 25144L   26144.84334672  .00009036  00000+0  31676-3 0  9997","line2":"2 64734  53.1580 187.1496 0001231  84.4573 275.6568 15.30207161 51351","mean_motion":15.30207161,"eccentricity":0.0001231,"inclination_deg":53.158,"raan_deg":187.1496,"arg_perigee_deg":84.4573,"mean_anomaly_deg":275.6568,"bstar":0.00031676,"rev_number":5135,"period_min":94.10490531615,"perigee_km":474.35004303979,"apogee_km":476.03733305518,"semimajor_km":6853.3306880475,"source":"CELESTRAK","updated_at":"2026-05-25T13:38:20.545834Z"}}}